User: anonymous   Login
Location: Beuerbach
(48.1459°N, 10.9174°E)
Time: 18:22:19
(UTC+00:00)
Language:

Cosmos 676 Rocket - Orbit

View from above orbital plane
View from above orbital plane
View from above satellite
View from above satellite

Ground track
Ground track

The orbit data is extracted from the following two-line orbital elements,

1 07434U 74071B   24199.90608163  .00000659  00000-0  22816-3 0  9997
2 07434  74.0463 140.1438 0019679 134.3283 225.9488 14.37493214608067
Epoch (UTC): 17 July 2024 21:44:45
Eccentricity: 0.0019679
inclination: 74.0463°
perigee height: 753 km
apogee height: 781 km
right ascension of ascending node: 140.1438°
argument of perigee: 134.3283°
revolutions per day: 14.37493214
mean anomaly at epoch: 225.9488°
orbit number at epoch: 60806

The dashed part of the orbit path shows where the satellite is in the earth's shadow,  

DLR